Time,TemperatureF,DewpointF,PressureIn,WindDirection,WindDirectionDegrees,WindSpeedMPH,WindSpeedGustMPH,Humidity,HourlyPrecipIn,Conditions,Clouds,dailyrainin,SolarRadiationWatts/m^2,SoftwareType,DateUTC
2013-05-01 00:12:00,56.0,52.0,-100.00,NNE,27,0.0,5.0,86,0.00,,,-99.99,0.000000,,2013-05-01 04:12:00,
2013-05-01 00:22:00,56.0,52.0,-100.00,NNE,27,0.0,5.0,86,0.00,,,-99.99,0.000000,,2013-05-01 04:22:00,
2013-05-01 00:32:00,56.0,52.0,-100.00,NNE,27,0.0,5.0,86,0.00,,,-99.99,0.000000,,2013-05-01 04:32:00,
2013-05-01 00:43:00,56.0,52.0,-100.00,NNE,27,0.0,5.0,86,0.00,,,-99.99,0.000000,,2013-05-01 04:43:00,
2013-05-01 01:12:00,55.0,53.0,-100.00,WNW,297,0.0,0.0,92,0.00,,,-99.99,0.000000,,2013-05-01 05:12:00,
2013-05-01 01:22:00,55.0,53.0,-100.00,WNW,297,0.0,0.0,92,0.00,,,-99.99,0.000000,,2013-05-01 05:22:00,
2013-05-01 01:32:00,55.0,53.0,-100.00,WNW,297,0.0,0.0,92,0.00,,,-99.99,0.000000,,2013-05-01 05:32:00,
2013-05-01 01:42:00,55.0,53.0,-100.00,WNW,297,0.0,0.0,92,0.00,,,-99.99,0.000000,,2013-05-01 05:42:00,
2013-05-01 02:12:00,53.0,51.0,-100.00,NE,51,2.0,9.0,94,0.00,,,-99.99,0.000000,,2013-05-01 06:12:00,
2013-05-01 02:22:00,53.0,51.0,-100.00,NE,51,2.0,9.0,94,0.00,,,-99.99,0.000000,,2013-05-01 06:22:00,
2013-05-01 02:32:00,53.0,51.0,-100.00,NE,51,2.0,9.0,94,0.00,,,-99.99,0.000000,,2013-05-01 06:32:00,
2013-05-01 02:42:00,53.0,51.0,-100.00,NE,51,2.0,9.0,94,0.00,,,-99.99,0.000000,,2013-05-01 06:42:00,
2013-05-01 03:11:00,52.0,51.0,-100.00,NE,47,0.0,8.0,96,0.00,,,0.00,0.000000,,2013-05-01 07:11:00,
2013-05-01 03:22:00,52.0,51.0,-100.00,NE,47,0.0,8.0,96,0.00,,,0.00,0.000000,,2013-05-01 07:22:00,
2013-05-01 03:32:00,52.0,51.0,-100.00,NE,47,0.0,8.0,96,0.00,,,0.00,0.000000,,2013-05-01 07:32:00,
2013-05-01 03:42:00,52.0,51.0,-100.00,NE,47,0.0,8.0,96,0.00,,,0.00,0.000000,,2013-05-01 07:42:00,
2013-05-01 04:12:00,52.0,51.0,-100.00,NNE,19,0.0,0.0,97,0.00,,,0.00,0.000000,,2013-05-01 08:12:00,
2013-05-01 04:22:00,52.0,51.0,-100.00,NNE,19,0.0,0.0,97,0.00,,,0.00,0.000000,,2013-05-01 08:22:00,
2013-05-01 04:32:00,52.0,51.0,-100.00,NNE,19,0.0,0.0,97,0.00,,,0.00,0.000000,,2013-05-01 08:32:00,
2013-05-01 04:42:00,52.0,51.0,-100.00,NNE,19,0.0,0.0,97,0.00,,,0.00,0.000000,,2013-05-01 08:42:00,
2013-05-01 05:12:00,52.0,51.0,-100.00,NE,37,0.0,0.0,98,0.00,,,-99.99,0.000000,,2013-05-01 09:12:00,
2013-05-01 05:22:00,52.0,51.0,-100.00,NE,37,0.0,0.0,98,0.00,,,-99.99,0.000000,,2013-05-01 09:22:00,
2013-05-01 05:33:00,52.0,51.0,-100.00,NE,37,0.0,0.0,98,0.00,,,-99.99,0.000000,,2013-05-01 09:33:00,
2013-05-01 05:43:00,52.0,51.0,-100.00,NE,37,0.0,0.0,98,0.00,,,-99.99,0.000000,,2013-05-01 09:43:00,
2013-05-01 06:12:00,49.0,48.0,-100.00,NE,35,0.0,0.0,98,0.00,,,-99.99,0.000000,,2013-05-01 10:12:00,
2013-05-01 06:22:00,49.0,48.0,-100.00,NE,35,0.0,0.0,98,0.00,,,-99.99,0.000000,,2013-05-01 10:22:00,
2013-05-01 06:33:00,49.0,48.0,-100.00,NE,35,0.0,0.0,98,0.00,,,-99.99,0.000000,,2013-05-01 10:33:00,
2013-05-01 06:42:00,49.0,48.0,-100.00,NE,35,0.0,0.0,98,0.00,,,-99.99,0.000000,,2013-05-01 10:42:00,
2013-05-01 07:11:00,50.0,50.0,-100.00,NE,37,4.0,7.0,99,0.00,,,-99.99,1.000000,,2013-05-01 11:11:00,
2013-05-01 07:22:00,50.0,50.0,-100.00,NE,37,4.0,7.0,99,0.00,,,-99.99,1.000000,,2013-05-01 11:22:00,
2013-05-01 07:32:00,50.0,50.0,-100.00,NE,37,4.0,7.0,99,0.00,,,-99.99,1.000000,,2013-05-01 11:32:00,
2013-05-01 07:42:00,50.0,50.0,-100.00,NE,37,4.0,7.0,99,0.00,,,-99.99,1.000000,,2013-05-01 11:42:00,
2013-05-01 08:11:00,55.0,55.0,-100.00,NE,40,0.0,54.0,99,0.00,,,-99.99,61.000000,,2013-05-01 12:11:00,
2013-05-01 08:21:00,55.0,55.0,-100.00,NE,40,0.0,54.0,99,0.00,,,-99.99,61.000000,,2013-05-01 12:21:00,
2013-05-01 08:32:00,55.0,55.0,-100.00,NE,40,0.0,54.0,99,0.00,,,-99.99,61.000000,,2013-05-01 12:32:00,
2013-05-01 08:42:00,55.0,55.0,-100.00,NE,40,0.0,54.0,99,0.00,,,-99.99,61.000000,,2013-05-01 12:42:00,
2013-05-01 09:11:00,65.0,56.0,-100.00,SE,132,0.0,-999.0,73,0.00,,,-99.99,259.000000,,2013-05-01 13:11:00,
2013-05-01 09:22:00,65.0,56.0,-100.00,SE,132,0.0,-999.0,73,0.00,,,-99.99,259.000000,,2013-05-01 13:22:00,
2013-05-01 09:32:00,65.0,56.0,-100.00,SE,132,0.0,-999.0,73,0.00,,,-99.99,259.000000,,2013-05-01 13:32:00,
2013-05-01 09:42:00,65.0,56.0,-100.00,SE,132,0.0,-999.0,73,0.00,,,-99.99,259.000000,,2013-05-01 13:42:00,
2013-05-01 10:11:00,70.0,56.0,-100.00,SE,132,5.0,-999.0,62,0.00,,,-99.99,472.000000,,2013-05-01 14:11:00,
2013-05-01 10:22:00,70.0,56.0,-100.00,SE,132,5.0,-999.0,62,0.00,,,-99.99,472.000000,,2013-05-01 14:22:00,
2013-05-01 10:32:00,70.0,56.0,-100.00,SE,132,5.0,-999.0,62,0.00,,,-99.99,472.000000,,2013-05-01 14:32:00,
2013-05-01 10:42:00,70.0,56.0,-100.00,SE,132,5.0,-999.0,62,0.00,,,-99.99,472.000000,,2013-05-01 14:42:00,
2013-05-01 11:11:00,78.0,57.0,-100.00,ESE,102,2.0,-999.0,48,0.00,,,-99.99,688.000000,,2013-05-01 15:11:00,
2013-05-01 11:22:00,78.0,57.0,-100.00,ESE,102,2.0,-999.0,48,0.00,,,-99.99,688.000000,,2013-05-01 15:22:00,
2013-05-01 11:33:00,78.0,57.0,-100.00,ESE,102,2.0,-999.0,48,0.00,,,-99.99,688.000000,,2013-05-01 15:33:00,
2013-05-01 11:43:00,78.0,57.0,-100.00,ESE,102,2.0,-999.0,48,0.00,,,-99.99,688.000000,,2013-05-01 15:43:00,
2013-05-01 12:12:00,80.0,55.0,-100.00,East,96,5.0,-999.0,42,0.00,,,0.00,862.000000,,2013-05-01 16:12:00,
2013-05-01 12:22:00,80.0,55.0,-100.00,East,96,5.0,-999.0,42,0.00,,,0.00,862.000000,,2013-05-01 16:22:00,
2013-05-01 12:32:00,80.0,55.0,-100.00,East,96,5.0,-999.0,42,0.00,,,0.00,862.000000,,2013-05-01 16:32:00,
2013-05-01 12:42:00,80.0,55.0,-100.00,East,96,5.0,-999.0,42,0.00,,,0.00,862.000000,,2013-05-01 16:42:00,
2013-05-01 13:12:00,81.0,53.0,-100.00,ESE,103,6.0,15.0,38,0.00,,,0.00,992.000000,,2013-05-01 17:12:00,
2013-05-01 13:22:00,81.0,53.0,-100.00,ESE,103,6.0,15.0,38,0.00,,,0.00,992.000000,,2013-05-01 17:22:00,
2013-05-01 13:32:00,81.0,53.0,-100.00,ESE,103,6.0,15.0,38,0.00,,,0.00,992.000000,,2013-05-01 17:32:00,
2013-05-01 13:42:00,81.0,53.0,-100.00,ESE,103,6.0,15.0,38,0.00,,,0.00,992.000000,,2013-05-01 17:42:00,
2013-05-01 14:11:00,82.0,52.0,-100.00,ESE,121,5.0,13.0,35,0.00,,,0.00,1048.000000,,2013-05-01 18:11:00,
2013-05-01 14:22:00,82.0,52.0,-100.00,ESE,121,5.0,13.0,35,0.00,,,0.00,1048.000000,,2013-05-01 18:22:00,
2013-05-01 14:32:00,82.0,52.0,-100.00,ESE,121,5.0,13.0,35,0.00,,,0.00,1048.000000,,2013-05-01 18:32:00,
2013-05-01 14:42:00,82.0,52.0,-100.00,ESE,121,5.0,13.0,35,0.00,,,0.00,1048.000000,,2013-05-01 18:42:00,
2013-05-01 15:11:00,84.0,52.0,-100.00,ESE,111,6.0,12.0,33,0.00,,,0.00,1004.000000,,2013-05-01 19:11:00,
2013-05-01 15:22:00,84.0,52.0,-100.00,ESE,111,6.0,12.0,33,0.00,,,0.00,1004.000000,,2013-05-01 19:22:00,
2013-05-01 15:32:00,84.0,52.0,-100.00,ESE,111,6.0,12.0,33,0.00,,,0.00,1004.000000,,2013-05-01 19:32:00,
2013-05-01 15:43:00,84.0,52.0,-100.00,ESE,111,6.0,12.0,33,0.00,,,0.00,1004.000000,,2013-05-01 19:43:00,
2013-05-01 16:11:00,83.0,52.0,-100.00,ESE,112,5.0,11.0,35,0.00,,,0.00,757.000000,,2013-05-01 20:11:00,
2013-05-01 16:22:00,83.0,52.0,-100.00,ESE,112,5.0,11.0,35,0.00,,,0.00,757.000000,,2013-05-01 20:22:00,
2013-05-01 16:32:00,83.0,52.0,-100.00,ESE,112,5.0,11.0,35,0.00,,,0.00,757.000000,,2013-05-01 20:32:00,
2013-05-01 16:42:00,83.0,52.0,-100.00,ESE,112,5.0,11.0,35,0.00,,,0.00,757.000000,,2013-05-01 20:42:00,
2013-05-01 17:11:00,84.0,50.0,-100.00,ENE,72,6.0,13.0,31,0.00,,,0.00,847.000000,,2013-05-01 21:11:00,
2013-05-01 17:22:00,84.0,50.0,-100.00,ENE,72,6.0,13.0,31,0.00,,,0.00,847.000000,,2013-05-01 21:22:00,
2013-05-01 17:32:00,84.0,50.0,-100.00,ENE,72,6.0,13.0,31,0.00,,,0.00,847.000000,,2013-05-01 21:32:00,
2013-05-01 17:43:00,84.0,50.0,-100.00,ENE,72,6.0,13.0,31,0.00,,,0.00,847.000000,,2013-05-01 21:43:00,
2013-05-01 18:12:00,84.0,50.0,-100.00,ESE,102,5.0,10.0,31,0.00,,,0.00,463.000000,,2013-05-01 22:12:00,
2013-05-01 18:23:00,84.0,50.0,-100.00,ESE,102,5.0,10.0,31,0.00,,,0.00,463.000000,,2013-05-01 22:23:00,
2013-05-01 18:33:00,84.0,50.0,-100.00,ESE,102,5.0,10.0,31,0.00,,,0.00,463.000000,,2013-05-01 22:33:00,
2013-05-01 18:42:00,84.0,50.0,-100.00,ESE,102,5.0,10.0,31,0.00,,,0.00,463.000000,,2013-05-01 22:42:00,
2013-05-01 19:12:00,79.0,53.0,-100.00,ENE,63,3.0,13.0,41,0.00,,,0.00,241.000000,,2013-05-01 23:12:00,
2013-05-01 19:22:00,79.0,53.0,-100.00,ENE,63,3.0,13.0,41,0.00,,,0.00,241.000000,,2013-05-01 23:22:00,
2013-05-01 19:32:00,79.0,53.0,-100.00,ENE,63,3.0,13.0,41,0.00,,,0.00,241.000000,,2013-05-01 23:32:00,
2013-05-01 19:42:00,79.0,53.0,-100.00,ENE,63,3.0,13.0,41,0.00,,,0.00,241.000000,,2013-05-01 23:42:00,
2013-05-01 20:11:00,78.0,52.0,-100.00,East,101,4.0,9.0,41,0.00,,,0.00,152.000000,,2013-05-02 00:11:00,
2013-05-01 20:22:00,78.0,52.0,-100.00,East,101,4.0,9.0,41,0.00,,,0.00,152.000000,,2013-05-02 00:22:00,
2013-05-01 20:32:00,78.0,52.0,-100.00,East,101,4.0,9.0,41,0.00,,,0.00,152.000000,,2013-05-02 00:32:00,
2013-05-01 20:42:00,78.0,52.0,-100.00,East,101,4.0,9.0,41,0.00,,,0.00,152.000000,,2013-05-02 00:42:00,
2013-05-01 21:11:00,72.0,54.0,-100.00,NNW,340,0.0,5.0,54,0.00,,,0.00,36.000000,,2013-05-02 01:11:00,
2013-05-01 21:22:00,72.0,54.0,-100.00,NNW,340,0.0,5.0,54,0.00,,,0.00,36.000000,,2013-05-02 01:22:00,
2013-05-01 21:32:00,72.0,54.0,-100.00,NNW,340,0.0,5.0,54,0.00,,,0.00,36.000000,,2013-05-02 01:32:00,
2013-05-01 21:42:00,72.0,54.0,-100.00,NNW,340,0.0,5.0,54,0.00,,,0.00,36.000000,,2013-05-02 01:42:00,
2013-05-01 22:12:00,65.0,57.0,-100.00,North,352,1.0,82.0,76,0.00,,,0.00,0.000000,,2013-05-02 02:12:00,
2013-05-01 22:22:00,65.0,57.0,-100.00,North,352,1.0,82.0,76,0.00,,,0.00,0.000000,,2013-05-02 02:22:00,
2013-05-01 22:32:00,65.0,57.0,-100.00,North,352,1.0,82.0,76,0.00,,,0.00,0.000000,,2013-05-02 02:32:00,
2013-05-01 22:42:00,65.0,57.0,-100.00,North,352,1.0,82.0,76,0.00,,,0.00,0.000000,,2013-05-02 02:42:00,
2013-05-01 23:11:00,63.0,56.0,-100.00,NE,40,5.0,84.0,77,0.00,,,0.00,0.000000,,2013-05-02 03:11:00,
2013-05-01 23:22:00,63.0,56.0,-100.00,NE,40,5.0,84.0,77,0.00,,,0.00,0.000000,,2013-05-02 03:22:00,
2013-05-01 23:33:00,63.0,56.0,-100.00,NE,40,5.0,84.0,77,0.00,,,0.00,0.000000,,2013-05-02 03:33:00,
2013-05-01 23:43:00,63.0,56.0,-100.00,NE,40,5.0,84.0,77,0.00,,,0.00,0.000000,,2013-05-02 03:43:00,